Regional Weather Roundup
Issued by NWS Sioux Falls, SD

Home | Current Version | Previous Version | Text Only | Print | Product List | Glossary On
Versions: 1 2 3 4 5 6 7 8 9 10 11 12 13 14 15 16 17 18 19 20 21 22 23 24 25 26 27 28 29 30 31 32 33 34 35 36 37 38 39 40 41 42 43 44 45 46 47 48 49 50
000
ASUS43 KFSD 201102
RWRFSD

WEATHER ROUNDUP FOR SE SOUTH DAKOTA/SW MINNESOTA/NW IOWA
NATIONAL WEATHER SERVICE SIOUX FALLS SD
600 AM CDT FRI APR 20 2018

NOTE: "FAIR" INDICATES FEW OR NO CLOUDS BELOW 12,000 FEET WITH NO
SIGNIFICANT WEATHER AND OR OBSTRUCTIONS TO VISIBILITY.


SDZ038>040-050-052>070-201200-
SOUTHEAST SOUTH DAKOTA

CITY           SKY/WX    TMP DP  RH WIND       PRES   REMARKS
BROOKINGS      CLOUDY    28  24  85 SE5       30.41F WCI  23
CHAMBERLAIN    CLOUDY    34  33  96 SE13      30.32S WCI  25
HURON          MOCLDY    30  24  78 SE6       30.38S WCI  24
MADISON        FAIR      28  28 100 SE8       30.39F WCI  20
MITCHELL       PTCLDY    29  24  82 SE8       30.38F WCI  21
SIOUX FALLS    PTCLDY    29  20  69 E6        30.41F WCI  23
WINNER         FAIR      34  29  82 E14       30.27F WCI  25
YANKTON        CLOUDY    30  26  85 E6        30.40R WCI  24
$$

MNZ071-072-080-081-089-090-097-098-201200-
SOUTHWEST MINNESOTA

CITY           SKY/WX    TMP DP  RH WIND       PRES   REMARKS
FAIRMONT       CLOUDY    15  13  91 SE5       30.47S WCI   8
JACKSON        CLOUDY    23  19  86 S3        30.45S
LUVERNE        CLOUDY    28  23  80 NE3       30.43F
MARSHALL       CLOUDY    25  21  85 S6        30.45S WCI  18
MONTEVIDEO     CLOUDY    27  21  80 CALM      30.45S
PIPESTONE      CLOUDY   N/A N/A N/A SE8       30.42R
REDWOOD FALLS  PTCLDY    23  21  92 CALM      30.46R
TRACY          CLOUDY    31  20  64 S9        30.43S WCI  23
WINDOM         CLOUDY    21   9  58 CALM      30.45S
WORTHINGTON    CLOUDY    28  19  69 S5        30.44S WCI  23
$$

IAZ001>003-012>014-020>022-031-032-NEZ013-014-SDZ071-201200-
NORTHWEST IOWA

CITY           SKY/WX    TMP DP  RH WIND       PRES   REMARKS
DENISON        CLOUDY    34  27  75 E5        30.44S WCI  30
ESTHERVILLE    CLOUDY    16  14  92 S3        30.45S FOG
LE MARS        CLOUDY    32  25  74 CALM      30.42S
ORANGE CITY    CLOUDY    30  25  80 E6        30.42S WCI  24
SHELDON        CLOUDY    30  25  80 E6        30.42S WCI  24
SIOUX CITY     CLOUDY    31  25  78 E8        30.41F WCI  23
SPENCER        CLOUDY    23  17  78 E5        30.45S WCI  17
STORM LAKE     PTCLDY    30  23  74 SE10      30.43F WCI  21
$$

ABBREVIATIONS USED IN REMARKS
   TC - TEMPERATURE IN CELSIUS
  WCI - WIND CHILL INDEX
   HX - HEAT INDEX
  VSB - VISIBILITY




USA.gov is the U.S. government's official web portal to all federal, state and local government web resources and services.